| time (UTC) | temp C | wind direction | speed KPH | gust KPH | rain 1hr cm | rain 24hr cm | rain mn cm | humidity % | barometer mb |
| 20260504050327 | 6 | 300 | 11.3 | 0.0 | 0.00 | 0.00 | 0.00 | 76 | 1015.0 |
| 20260504044817 | 5 | 290 | 14.5 | 0.0 | 0.00 | 0.00 | 0.00 | 81 | 1015.0 |
| 20260504043317 | 5 | 290 | 14.5 | 0.0 | 0.00 | 0.00 | 0.00 | 81 | 1015.0 |
| 20260504041817 | 3 | 290 | 16.1 | 0.0 | 0.00 | 0.00 | 0.00 | 87 | 1015.0 |
| 20260504040317 | 3 | 290 | 16.1 | 0.0 | 0.00 | 0.00 | 0.00 | 87 | 1015.0 |
| 20260504034817 | 3 | 290 | 16.1 | 0.0 | 0.00 | 0.00 | 0.00 | 81 | 1014.0 |
| 20260504033317 | 3 | 290 | 16.1 | 0.0 | 0.00 | 0.00 | 0.00 | 81 | 1014.0 |
| 20260504031817 | 3 | 290 | 16.1 | 0.0 | 0.00 | 0.00 | 0.00 | 81 | 1015.0 |
| 20260504030434 | 3 | 290 | 16.1 | 0.0 | 0.00 | 0.00 | 0.00 | 81 | 1015.0 |
| 20260504024818 | 3 | 290 | 16.1 | 0.0 | 0.00 | 0.00 | 0.00 | 81 | 1015.0 |
| 20260504023317 | 3 | 290 | 16.1 | 0.0 | 0.00 | 0.00 | 0.00 | 81 | 1015.0 |
| 20260504021816 | 5 | 290 | 16.1 | 0.0 | 0.00 | 0.00 | 0.00 | 76 | 1015.0 |
| 20260504020317 | 5 | 290 | 16.1 | 0.0 | 0.00 | 0.00 | 0.00 | 76 | 1015.0 |
| 20260504014817 | 5 | 290 | 14.5 | 0.0 | 0.00 | 0.00 | 0.00 | 70 | 1015.0 |
| 20260504013322 | 5 | 290 | 14.5 | 0.0 | 0.00 | 0.00 | 0.00 | 70 | 1015.0 |
| 20260504011933 | 5 | 290 | 12.9 | 0.0 | 0.00 | 0.00 | 0.00 | 70 | 1016.0 |
| 20260504010317 | 5 | 290 | 12.9 | 0.0 | 0.00 | 0.00 | 0.00 | 70 | 1016.0 |
| 20260504004934 | 5 | 290 | 14.5 | 0.0 | 0.00 | 0.00 | 0.00 | 70 | 1016.0 |
| 20260504003317 | 5 | 290 | 14.5 | 0.0 | 0.00 | 0.00 | 0.00 | 70 | 1016.0 |
| 20260504001817 | 5 | 290 | 16.1 | 0.0 | 0.00 | 0.00 | 0.00 | 76 | 1016.0 |
| 20260504000317 | 5 | 290 | 16.1 | 0.0 | 0.00 | 0.00 | 0.00 | 76 | 1016.0 |
| 20260503234857 | 5 | 290 | 16.1 | 0.0 | 0.00 | 0.00 | 0.00 | 76 | 1016.0 |
| 20260503233317 | 5 | 290 | 16.1 | 0.0 | 0.00 | 0.00 | 0.00 | 76 | 1016.0 |
| 20260503231820 | 5 | 290 | 17.7 | 0.0 | 0.00 | 0.00 | 0.00 | 76 | 1017.0 |
| 20260503230329 | 5 | 290 | 17.7 | 0.0 | 0.00 | 0.00 | 0.00 | 76 | 1017.0 |
| 20260503224817 | 5 | 290 | 16.1 | 0.0 | 0.00 | 0.00 | 0.00 | 76 | 1017.0 |
| 20260503223329 | 5 | 290 | 16.1 | 0.0 | 0.00 | 0.00 | 0.00 | 76 | 1017.0 |
| 20260503221834 | 5 | 290 | 12.9 | 0.0 | 0.00 | 0.00 | 0.00 | 76 | 1017.0 |
| 20260503220359 | 5 | 290 | 12.9 | 0.0 | 0.00 | 0.00 | 0.00 | 76 | 1017.0 |
| 20260503214824 | 5 | 290 | 16.1 | 0.0 | 0.00 | 0.00 | 0.00 | 76 | 1017.0 |
| 20260503213317 | 5 | 290 | 16.1 | 0.0 | 0.00 | 0.00 | 0.00 | 76 | 1017.0 |
| 20260503211817 | 3 | 290 | 14.5 | 0.0 | 0.00 | 0.00 | 0.00 | 81 | 1017.0 |
| 20260503210317 | 3 | 290 | 14.5 | 0.0 | 0.00 | 0.00 | 0.00 | 81 | 1017.0 |
| 20260503204824 | 3 | 300 | 11.3 | 0.0 | 0.00 | 0.00 | 0.00 | 81 | 1017.0 |
| 20260503203433 | 3 | 300 | 11.3 | 0.0 | 0.00 | 0.00 | 0.00 | 81 | 1017.0 |
| 20260503201817 | 5 | 310 | 11.3 | 0.0 | 0.00 | 0.00 | 0.00 | 76 | 1018.0 |
| 20260503200326 | 5 | 310 | 11.3 | 0.0 | 0.00 | 0.00 | 0.00 | 76 | 1018.0 |
| 20260503194842 | 5 | 310 | 8.0 | 0.0 | 0.00 | 0.00 | 0.00 | 76 | 1018.0 |
| 20260503193434 | 5 | 310 | 8.0 | 0.0 | 0.00 | 0.00 | 0.00 | 76 | 1018.0 |
| 20260503191817 | 6 | 300 | 8.0 | 0.0 | 0.00 | 0.00 | 0.00 | 76 | 1018.0 |
| 20260503190317 | 6 | 300 | 8.0 | 0.0 | 0.00 | 0.00 | 0.00 | 76 | 1018.0 |
| 20260503184933 | 5 | 310 | 8.0 | 0.0 | 0.00 | 0.00 | 0.00 | 76 | 1019.0 |
| 20260503183316 | 5 | 310 | 8.0 | 0.0 | 0.00 | 0.00 | 0.00 | 76 | 1019.0 |
| 20260503181817 | 7 | 0 | 0.0 | 0.0 | 0.00 | 0.00 | 0.00 | 62 | 1019.0 |
| 20260503180316 | 7 | 0 | 0.0 | 0.0 | 0.00 | 0.00 | 0.00 | 62 | 1019.0 |
| 20260503174837 | 7 | 0 | 0.0 | 0.0 | 0.00 | 0.00 | 0.00 | 66 | 1018.0 |
| 20260503173342 | 7 | 0 | 0.0 | 0.0 | 0.00 | 0.00 | 0.00 | 66 | 1018.0 |
| 20260503171817 | 8 | 70 | 9.7 | 0.0 | 0.00 | 0.00 | 0.00 | 66 | 1018.0 |
| 20260503170317 | 8 | 70 | 9.7 | 0.0 | 0.00 | 0.00 | 0.00 | 66 | 1018.0 |
| 20260503150317 | 12 | 90 | 17.7 | 0.0 | 0.00 | 0.00 | 0.00 | 51 | 1019.0 |
| 20260503130317 | 13 | 30 | 16.1 | 0.0 | 0.00 | 0.00 | 0.00 | 51 | 1019.0 |
| 20260503110338 | 13 | 60 | 17.7 | 0.0 | 0.00 | 0.00 | 0.00 | 51 | 1021.0 |
| 20260503090338 | 12 | 50 | 24.1 | 0.0 | 0.00 | 0.00 | 0.00 | 51 | 1021.0 |
| 20260503080327 | 12 | 40 | 24.1 | 0.0 | 0.00 | 0.00 | 0.00 | 51 | 1021.0 |
| 20260503071816 | 12 | 40 | 22.5 | 0.0 | 0.00 | 0.00 | 0.00 | 63 | 1021.0 |
| 20260503070318 | 12 | 40 | 22.5 | 0.0 | 0.00 | 0.00 | 0.00 | 63 | 1021.0 |
| 20260503060317 | 10 | 20 | 20.9 | 0.0 | 0.00 | 0.00 | 0.00 | 76 | 1021.0 |
| 20260503054817 | 8 | 10 | 17.7 | 0.0 | 0.00 | 0.00 | 0.00 | 71 | 1021.0 |
| 20260503053317 | 8 | 10 | 17.7 | 0.0 | 0.00 | 0.00 | 0.00 | 71 | 1021.0 |
| 20260503051817 | 7 | 360 | 20.9 | 0.0 | 0.00 | 0.00 | 0.00 | 71 | 1021.0 |